This demonstration page uses our WeatherBlox Daily Observations layout. Learn more.

Hourly Observations for June 7, 2020

Temp ( °F °C ) Dew Point ( °F °C ) Humidity (%) Winds ( mph kmh ) Pressure ( in mb ) Visibility ( mi km ) Precip ( " mm )
12:15 am 00:15 Clear 79 26.2 64 18 61 61 SSE 16 26 29.66 1004 10 16.0934 0 0
12:35 am 00:35 Clear 79 26.2 64 18 61 61 SSE 16 26 29.66 1004 10 16.0934 0 0
12:55 am 00:55 Clear 79 26.2 64 18 61 61 SSE 17 28 29.66 1004 10 16.0934 0 0
1:15 am 01:15 Clear 79 26 64 18 61 61 SSE 20 31 29.66 1004 10 16.0934 0 0
1:35 am 01:35 Clear 78 25.8 64 17.8 61 61 S 16 26 29.66 1004 10 16.0934 0 0
1:55 am 01:55 Clear 78 25.6 64 17.7 62 62 SSE 18 30 29.67 1005 10 16.0934 0 0
2:15 am 02:15 Clear 78 25.3 64 17.6 62 62 S 17 28 29.67 1005 10 16.0934 0 0
2:35 am 02:35 Clear 77 25.1 64 17.6 63 63 SSE 17 28 29.67 1005 10 16.0934 0 0
2:55 am 02:55 Clear 77 25 64 17.7 64 64 S 18 30 29.66 1004 10 16.0934 0 0
3:15 am 03:15 Clear 77 25 64 17.7 64 64 S 20 31 29.66 1004 10 16.0934 0 0
3:35 am 03:35 Clear 76 24.7 64 17.7 65 65 S 18 30 29.66 1004 10 16.0934 0 0
3:55 am 03:55 Clear 76 24.5 64 18 67 67 S 20 31 29.65 1004 10 16.0934 0 0
4:15 am 04:15 Clear 76 24.5 65 18.1 68 68 S 17 28 29.66 1004 10 16.0934 0 0
4:35 am 04:35 Clear 76 24.3 65 18.4 70 70 S 18 30 29.66 1005 10 16.0934 0 0
4:55 am 04:55 Clear 76 24.2 66 18.7 71 71 S 18 30 29.66 1005 10 16.0934 0 0
5:15 am 05:15 Clear 75 24 66 18.8 73 73 S 18 30 29.67 1005 10 16.0934 0 0
5:35 am 05:35 Clear 75 24 66 19 74 74 S 20 31 29.67 1005 10 16.0934 0 0
5:55 am 05:55 Clear 75 23.7 66 19 75 75 S 18 30 29.67 1005 10 16.0934 0 0
6:15 am 06:15 Sunny 74 23.6 66 18.9 75 75 S 17 28 29.67 1005 10 16.0934 0 0
6:35 am 06:35 Sunny 75 23.9 66 18.8 73 73 S 20 31 29.68 1005 10 16.0934 0 0
6:55 am 06:55 Sunny 75 24 66 18.8 73 73 S 18 30 29.68 1005 10 16.0934 0 0
7:15 am 07:15 Sunny 75 24.1 66 18.8 72 72 S 20 31 29.67 1005 10 16.0934 0 0
7:35 am 07:35 Sunny 76 24.5 66 18.7 70 70 S 22 35 29.67 1005 10 16.0934 0 0
7:55 am 07:55 Sunny 76 24.5 66 18.8 71 71 S 21 33 29.67 1005 10 16.0934 0 0
8:15 am 08:15 Sunny 76 24.7 66 18.7 69 69 S 23 37 29.67 1005 10 16.0934 0 0
8:35 am 08:35 Sunny 77 25.2 66 18.7 67 67 S 23 37 29.67 1005 10 16.0934 0 0
8:55 am 08:55 Sunny 78 25.7 66 18.7 65 65 S 24 39 29.66 1004 10 16.0934 0 0
9:15 am 09:15 Sunny 80 26.5 66 19 63 63 S 26 43 29.66 1004 10 16.0934 0 0
9:35 am 09:35 Sunny 82 27.5 65 18.6 58 58 S 29 46 29.64 1004 10 16.0934 0 0
9:55 am 09:55 Sunny 82 27.7 65 18.4 57 57 S 25 41 29.65 1004 10 16.0934 0 0
10:15 am 10:15 Sunny 84 28.9 65 18.1 52 52 S 28 44 29.63 1003 10 16.0934 0 0
10:35 am 10:35 Sunny 84 29.1 64 18 51 51 S 28 44 29.62 1003 10 16.0934 0 0
10:55 am 10:55 Sunny 85 29.5 64 17.8 49 49 S 31 50 29.6 1002 10 16.0934 0 0
11:15 am 11:15 Sunny 86 29.8 63 17.4 47 47 S 30 48 29.6 1002 10 16.0934 0 0
11:35 am 11:35 Sunny 86 30 63 17 46 46 S 28 44 29.6 1002 10 16.0934 0 0
11:55 am 11:55 Sunny 87 30.4 63 17 45 45 S 29 46 29.59 1002 10 16.0934 0 0
12:15 pm 12:15 Sunny 88 31 62 16.5 42 42 S 23 37 29.58 1002 10 16.0934 0 0
12:35 pm 12:35 Sunny 89 31.6 61 15.9 39 39 S 33 54 29.57 1001 10 16.0934 0 0
12:55 pm 12:55 Sunny 90 32.1 60 15.6 37 37 S 28 44 29.56 1001 10 16.0934 0 0
1:15 pm 13:15 Sunny 91 32.5 60 15.3 35 35 S 28 44 29.55 1001 10 16.0934 0 0
1:35 pm 13:35 Sunny 91 32.5 60 15.3 35 35 S 33 54 29.54 1000 10 16.0934 0 0
1:55 pm 13:55 Sunny 91 32.9 58 14.7 33 33 S 31 50 29.54 1000 10 16.0934 0 0
2:15 pm 14:15 Sunny 91 32.8 60 15.4 35 35 SSE 31 50 29.52 1000 10 16.0934 0 0
2:35 pm 14:35 Sunny 91 33 58 14.2 32 32 S 30 48 29.51 999 10 16.0934 0 0
2:55 pm 14:55 Sunny 91 33 59 14.9 34 34 S 31 50 29.51 999 10 16.0934 0 0
3:15 pm 15:15 Sunny 92 33.1 59 14.8 33 33 S 36 57 29.5 999 10 16.0934 0 0
3:35 pm 15:35 Sunny 92 33.6 60 15.3 33 33 S 29 46 29.48 998 10 16.0934 0 0
3:55 pm 15:55 Sunny 92 33.4 61 16.1 35 35 S 31 50 29.48 998 10 16.0934 0 0
4:15 pm 16:15 Sunny 92 33.3 60 15.6 34 34 S 32 52 29.47 998 10 16.0934 0 0
4:35 pm 16:35 Sunny 92 33.2 59 15.1 34 34 S 32 52 29.47 998 10 16.0934 0 0
4:55 pm 16:55 Sunny 92 33.5 58 14.7 32 32 S 31 50 29.46 998 10 16.0934 0 0
5:15 pm 17:15 Sunny 93 33.7 58 14.5 31 31 S 33 54 29.46 998 10 16.0934 0 0
5:35 pm 17:35 Sunny 92 33.3 58 14.2 31 31 S 28 44 29.46 998 10 16.0934 0 0
5:55 pm 17:55 Sunny 92 33.1 58 14.3 32 32 SSE 30 48 29.46 997 10 16.0934 0 0
6:15 pm 18:15 Sunny 91 33 57 13.9 31 31 S 25 41 29.46 998 10 16.0934 0 0
6:35 pm 18:35 Sunny 91 32.6 57 13.7 32 32 SSE 32 52 29.45 997 10 16.0934 0 0
6:55 pm 18:55 Sunny 90 32.3 56 13.4 32 32 SSE 28 44 29.46 998 10 16.0934 0 0
7:15 pm 19:15 Sunny 89 31.9 56 13.6 33 33 SSE 25 41 29.47 998 10 16.0934 0 0
7:35 pm 19:35 Sunny 89 31.5 55 13 32 32 SSE 25 41 29.48 998 10 16.0934 0 0
7:55 pm 19:55 Sunny 88 31 55 13 33 33 SSE 22 35 29.47 998 10 16.0934 0 0
8:15 pm 20:15 Sunny 87 30.5 56 13.1 34 34 SSE 24 39 29.48 998 10 16.0934 0 0
8:35 pm 20:35 Sunny 86 30 55 13 35 35 SSE 20 31 29.48 998 10 16.0934 0 0
8:55 pm 20:55 Sunny 85 29.4 55 12.8 36 36 SSE 22 35 29.48 998 10 16.0934 0 0
9:15 pm 21:15 Clear 84 28.9 54 12.1 35 35 SSE 23 37 29.49 999 10 16.0934 0 0
9:35 pm 21:35 Clear 83 28.5 53 11.6 35 35 SSE 21 33 29.49 999 10 16.0934 0 0
9:55 pm 21:55 Clear 82 27.8 54 12.3 38 38 SSE 21 33 29.51 999 10 16.0934 0 0
10:15 pm 22:15 Clear 82 27.5 54 12.2 39 39 SSE 23 37 29.51 999 10 16.0934 0 0
10:35 pm 22:35 Clear 81 27 54 12.2 40 40 SSE 22 35 29.51 999 10 16.0934 0 0
10:55 pm 22:55 Clear 80 26.6 54 12.3 41 41 SSE 23 37 29.53 1000 10 16.0934 0 0
11:15 pm 23:15 Clear 79 26.2 53 11.4 40 40 SSE 22 35 29.53 1000 10 16.0934 0 0
11:35 pm 23:35 Clear 79 25.9 52 11.2 40 40 SSE 22 35 29.54 1000 10 16.0934 0 0
11:55 pm 23:55 Clear 78 25.5 54 12 43 43 SSE 24 39 29.54 1000 10 16.0934 0 0

Powered by AerisWeather